Regional Weather Roundup
Issued by NWS Wilmington, NC

Home | Current Version | Previous Version | Text Only | Print | Product List | Glossary On
Versions: 1 2 3 4 5 6 7 8 9 10 11 12 13 14 15 16 17 18 19 20 21 22 23 24 25 26 27 28 29 30 31 32 33 34 35 36 37 38 39 40 41 42 43 44 45 46 47 48 49 50
000
ASUS42 KILM 302213
RWRILM
RWRILM
REGIONAL HOURLY WEATHER ROUNDUP
NATIONAL WEATHER SERVICE WILMINGTON NC
600 PM EDT SAT APR 30 2016

NOTE: "FAIR" INDICATES FEW OR NO CLOUDS BELOW 12,000 FEET WITH NO
SIGNIFICANT WEATHER AND/OR OBSTRUCTIONS TO VISIBILITY.

...............WFO WILMINGTON COUNTY WARNING AREA...............

......COASTAL NC AND SC COUNTIES......

CITY           SKY/WX    TMP DP  RH WIND       PRES   REMARKS
WILMINGTON     CLOUDY    65  59  81 E7        30.11S
N MYRTLE BEACH CLOUDY    72  62  71 E12       30.08S
MYRTLE BEACH   PTSUNNY   72  59  64 E16       30.09S

......INLAND NC AND SC COUNTIES.......

CITY           SKY/WX    TMP DP  RH WIND       PRES   REMARKS
LUMBERTON      CLOUDY    73  63  70 E8        30.06R
ELIZABETHTOWN  CLOUDY    71  62  72 E5        30.08S
WHITEVILLE     MOSUNNY   73  63  72 E10       30.07S
FLORENCE       PTSUNNY   80  65  59 SE13G21   30.03S
DARLINGTON     NOT AVBL
KINGSTREE      FAIR      77  64  65 E13G22    30.02R
HARTSVILLE     FAIR     N/A N/A N/A E10       30.02S
BENNETTSVILLE  CLOUDY    79  68  69 E13       30.03R
CONWAY         FAIR      72  64  78 E10       30.07S
GEORGETOWN     CLOUDY    70  64  83 E16       30.07R
MARION         FAIR      77  63  61 SE6       30.05R

....................REST OF NORTH CAROLINA......................

.........EASTERN NC.........

CITY           SKY/WX    TMP DP  RH WIND       PRES   REMARKS
CAPE HATTERAS  CLOUDY    59  54  83 NE9G23    30.14F
JACKSONVILLE   CLOUDY    67  59  75 NE12      30.12S
MOREHEAD CITY  CLOUDY    65  56  72 NE12      30.13R
KENANSVILLE    CLOUDY    67  57  71 E5        30.12S
NEW BERN       CLOUDY    65  55  70 E8        30.15R
ELIZABETH CITY PTSUNNY   61  51  70 E15       30.18R

.........CENTRAL NC.........

CITY           SKY/WX    TMP DP  RH WIND       PRES   REMARKS
RALEIGH DURHAM CLOUDY    63  57  81 E8        30.13R
ROCKY MOUNT    CLOUDY    61  56  83 NE5       30.15S
ROANOKE RAPIDS NOT AVBL
FAYETTEVILLE   CLOUDY    71  62  73 E7        30.08S
HOFFMAN        PTSUNNY   73  63  68 SE12      30.05S

.........WESTERN NC.........

CITY           SKY/WX    TMP DP  RH WIND       PRES   REMARKS
CHARLOTTE      PTSUNNY   74  63  68 NE10      30.02S
GREENSBORO     DRIZZLE   61  59  94 E9        30.10R FOG
HICKORY        NOT AVBL
BOONE          NOT AVBL
ASHEVILLE      NOT AVBL

.....................REST OF SOUTH CAROLINA.....................

.........EASTERN SC.........

CITY           SKY/WX    TMP DP  RH WIND       PRES   REMARKS
CHARLESTON     PTSUNNY   79  69  71 S14       30.02R
BEAUFORT MCAS  MOSUNNY   81  69  67 SE6G16    30.00S
HILTON HEAD    MOSUNNY   77  72  83 SE7       30.01F

.........CENTRAL SC.........

CITY           SKY/WX    TMP DP  RH WIND       PRES   REMARKS
COLUMBIA       PTSUNNY   88  60  38 S13G20    29.96R
ORANGEBURG     MOSUNNY   84  62  47 S15       29.99R
SUMTER SHAW    PTSUNNY   83  65  53 SE9       29.97R

.........WESTERN SC.........

CITY           SKY/WX    TMP DP  RH WIND       PRES   REMARKS
GREENVILLE     NOT AVBL
ROCK HILL      MOSUNNY   76  65  68 E6        30.00S
ANDERSON       LGT RAIN  67  65  93 NW10      29.99R FOG
CLEMSON        NOT AVBL
GREENWOOD      CLOUDY    83  58  42 NW10      29.98R


...................COASTAL AND OFFSHORE REPORTS..................

................LOCAL PIERS AND NC RESERVE................


STATION/POSITION TIME  SKY/WX   TEMP    WIND        PRES    VSBY
                                AIR SEA DIR/SP/G
                 (UTC)          (F)     (DEG/KT/KT) (MB)    (MI)
JOHNY MRCER PIER 2100            65 69   80/ 16/ 18 1018.7R
NC RESRV MASNBRO NOT AVBL
OCEAN CREST PIER NOT AVBL
SPRINGMAID  PIER 2100            67 71   40/ 16/ 18 1018.1R


................COASTAL AND OFFSHORE BUOYS................


STATION/POSITION TIME  SKY/WX   TEMP    WIND        PRES    VSBY
                                AIR SEA DIR/SP/G
                 (UTC)          (F)     (DEG/KT/KT) (MB)    (MI)
DIMNDSHOAL 41025 2150            59 73   30/ 19/ 21 1020.2F
WVE H/P(F/S)=  5/ 9 SWL H/P/D(F/S/D)=  3/ 60/ 9

CAPE LOOKOUT     2200            62      50/ 17/ 18 1020.2R
ONSLOW BAY 41036 NOT AVBL
ONSLOW BAY 41064 NOT AVBL
ONSLOW BAY 41159 2125               68                N/A
WVE H/P(F/S)=  4/ 4 SWL H/P/D(F/S/D)=  2/ 90/11

5SE WRITBC 41038 2108            65 68   80/ 16/ 21 1020.0R
MASNBO INL 41110 2106               68                N/A
WVE H/P(F/S)=  3/ 5

WILM HARBR 41108 2126               67                N/A
WVE H/P(F/S)=  3/ 5

27SE WRITB 41037 2108            66 70   70/ 16/ 21 1018.6F
FRYING PAN 41013 2100            69 70   60/ 19/ 23 1018.0F
SUNST NRSH 41024 2108            68 69   90/ 14/ 17 1018.0R
CAPRS NRSH 41029 2108            74 72  120/  8/ 10 1016.5F
EDISTO     41004 2150            75 74  100/ 12/ 14 1016.3R
WVE H/P(F/S)=  3/10 SWL H/P/D(F/S/D)=  2/10



..........OFFSHORE BUOYS BEYOND 100 NM OFFSHORE...........
.....IN A TRIANGLE---HAT TO BERMUDA TO BAHAMAS TO HAT.....


STATION/POSITION TIME  SKY/WX   TEMP    WIND        PRES    VSBY
                                AIR SEA DIR/SP/G
                 (UTC)          (F)     (DEG/KT/KT) (MB)    (MI)
150E HAT   41001 NOT AVBL
W BERMUDA  41048 2150            70 70  320/ 10/ 12 1016.4R
WVE H/P(F/S)=  3/ 9 SWL H/P/D(F/S/D)=  3/100/ 9

ATLANTIC S 41049 2150            74 76   60/  8/  8 1016.5R
WVE H/P(F/S)=  3/ 9 SWL H/P/D(F/S/D)=  3/ 90/ 9

E BAHAMAS  41046 2150            78 79  110/ 10/ 12 1014.1F
WVE H/P(F/S)=  3/ 9 SWL H/P/D(F/S/D)=  3/ 60/ 9

NE BAHAMAS 41047 2150            77 78  100/ 10/ 12 1015.2R
WVE H/P(F/S)=  3/ 9 SWL H/P/D(F/S/D)=  3/100/ 9

120E CANVRL41010 2120            77 78  140/  4/  6 1015.9R

END



USA.gov is the U.S. government's official web portal to all federal, state and local government web resources and services.